Dewpoint
44 35 34 25 8 0 -7 -11 -5 -3 5 12 14 8 -0 11 16 26 55 59 63 60 66 69 70 70 70 70 71 72 72 72 71 71 71 71 72 72 72 72 72 71 71 70 69 69 69 69 69
32 34 28 16 3 -1 -4 -5 -4 -5 1 8 7 7 14 12 27 36 46 60 62 62 66 67 70 70 69 70 71 72 73 72 72 71 71 72 72 72 72 72 71 71 71 70 69 69 69 69 69
35 34 21 13 9 7 5 -4 -4 3 8 7 6 9 9 12 26 40 56 62 61 63 65 67 70 70 69 69 70 71 72 72 72 72 71 72 72 72 72 71 71 71 71 70 70 69 70 69 69
30 26 19 15 11 9 2 3 4 5 10 12 11 7 8 16 40 52 60 62 61 63 64 69 70 70 70 69 70 71 71 71 71 71 72 72 72 72 71 71 71 71 71 70 70 70 69 68 69
26 22 20 17 16 15 16 13 14 13 14 15 16 17 15 26 43 50 62 63 61 63 65 70 70 70 70 70 70 70 70 70 70 71 72 72 72 72 71 70 70 71 70 69 70 70 68 68 68
22 24 19 17 16 16 16 17 16 17 19 21 19 17 17 29 38 48 61 64 64 65 66 68 69 70 70 70 70 69 69 69 70 71 71 71 72 71 70 70 70 70 69 68 69 68 68 68 68
21 17 17 17 18 18 19 20 20 21 21 21 20 18 21 25 46 55 59 66 66 67 68 68 68 69 70 70 69 68 68 69 70 70 71 71 71 70 70 70 69 69 69 69 69 67 67 68 67
25 22 17 17 16 16 20 21 22 23 22 26 21 19 23 36 48 51 60 64 67 68 68 69 68 68 68 68 69 68 68 68 69 70 70 70 70 70 70 70 69 70 69 68 67 67 67 67 66
30 19 13 12 17 16 22 25 23 27 26 26 29 29 30 32 31 43 49 59 64 66 67 68 68 67 68 67 68 68 68 68 69 69 70 70 67 68 69 68 69 69 69 68 67 67 67 67 66
20 11 6 18 20 21 25 25 24 22 22 23 23 30 30 27 27 27 30 44 56 63 65 66 67 67 67 66 67 67 67 66 66 66 68 67 65 66 65 66 68 69 69 68 67 67 66 66 63
12 10 12 19 23 21 20 19 20 18 17 18 20 22 22 21 21 22 23 27 42 59 62 64 66 66 66 65 66 66 65 65 66 66 66 66 66 66 65 66 67 66 67 65 66 66 64 62 63
2 5 11 7 12 11 8 7 7 6 7 10 12 11 11 13 16 18 20 24 32 49 60 62 64 66 66 63 64 66 65 67 66 65 67 66 66 66 65 65 64 64 64 63 63 62 62 64 64
9 10 14 13 10 7 6 3 1 -0 3 3 8 12 13 13 13 15 15 18 24 35 55 60 63 64 65 65 63 63 64 66 66 67 68 68 65 65 65 65 65 64 64 64 62 62 64 63 62
8 9 9 8 7 6 6 5 6 2 5 9 10 10 11 12 16 20 21 19 21 30 48 59 61 64 65 64 63 63 64 63 66 66 67 68 65 65 65 65 66 65 65 64 63 62 63 61 61
13 9 5 5 5 4 6 0 -3 -1 9 6 11 12 12 13 13 13 18 24 25 25 37 53 60 63 64 64 63 63 62 63 64 65 66 67 67 66 66 66 66 66 65 65 64 63 63 61 61
12 10 4 6 6 6 7 1 4 8 9 10 12 11 9 12 13 12 13 21 25 26 26 37 57 61 63 63 63 62 62 63 63 65 65 66 67 66 66 65 65 65 67 66 65 65 64 61 61
12 4 2 4 8 9 9 6 7 8 10 12 14 11 9 11 14 12 10 15 22 25 27 32 52 60 62 62 62 62 62 64 63 63 62 65 66 66 65 65 65 66 66 65 65 64 63 62 61
-0 2 3 4 7 8 7 7 7 9 11 11 10 10 11 14 17 16 14 10 25 35 33 30 46 60 62 62 62 61 61 63 63 63 63 63 64 65 65 64 65 66 65 64 64 64 64 62 61
8 6 5 6 10 10 9 7 7 9 10 13 17 18 20 21 22 17 16 24 43 43 44 35 42 58 62 61 60 59 59 60 61 61 62 63 64 64 64 64 65 65 64 64 64 64 62 62 62
10 8 6 8 11 11 9 8 10 9 17 29 31 31 33 34 34 34 37 40 44 45 45 46 48 51 61 61 59 57 58 58 59 60 60 62 63 64 64 64 64 63 63 63 63 63 61 62 62
13 11 10 10 13 12 10 9 -0 12 27 32 33 33 34 35 36 37 37 40 42 43 45 46 50 57 60 63 61 59 58 59 59 60 60 61 62 63 65 64 64 63 63 62 63 62 62 60 62
12 15 15 15 12 6 11 8 9 22 22 25 29 31 33 34 36 37 38 39 40 41 43 47 50 53 62 64 62 61 61 61 62 62 61 62 62 62 63 63 63 62 63 62 62 62 62 61 59
15 21 18 16 16 14 7 7 9 23 23 25 27 28 31 35 36 37 37 38 39 40 41 44 48 52 55 62 62 64 62 61 62 63 63 64 63 63 62 63 63 64 63 63 63 62 63 62 61
20 20 19 18 17 11 10 15 18 25 27 27 27 29 30 32 34 36 37 38 38 40 41 42 44 46 50 54 55 60 62 63 62 63 63 63 64 64 64 65 65 64 64 64 64 63 63 62 61
22 20 11 9 14 7 9 10 23 27 29 29 29 30 31 31 31 33 35 36 37 39 39 41 41 42 45 48 49 51 54 56 58 59 62 63 63 63 64 64 64 64 64 64 64 64 62 62 62
22 19 10 7 3 8 13 20 24 31 32 32 31 31 31 30 31 31 33 34 35 37 38 39 39 40 42 44 46 47 49 51 52 53 55 57 60 63 63 64 64 64 64 64 64 64 63 63 63
25 20 17 16 17 16 19 27 30 25 27 30 28 29 29 29 30 30 31 33 33 35 36 37 38 38 39 42 44 44 45 48 49 51 54 55 57 59 63 63 63 63 63 63 64 63 62 63 63
25 27 23 22 15 12 19 22 21 23 25 28 26 27 28 29 29 29 30 31 32 33 35 36 37 37 38 39 41 42 42 43 45 46 47 47 50 53 58 63 63 62 63 62 63 62 62 62 62
32 26 24 22 20 16 14 21 27 25 26 26 26 27 27 28 28 28 29 30 32 30 31 34 35 36 36 37 38 39 39 41 41 42 42 43 45 49 54 61 61 62 62 62 62 61 61 60 61
29 27 23 21 20 21 25 21 29 28 28 28 27 27 28 28 28 28 28 29 30 29 30 31 33 34 35 35 36 36 37 37 38 38 39 40 42 43 46 50 60 60 60 61 61 60 59 59 59
Wind_Speed
5 4 4 6 8 7 7 5 3 7 3 2 2 8 14 12 10 10 2 5 4 17 22 25 24 22 21 17 15 15 16 19 21 21 20 20 21 20 19 19 17 17 16 15 12 10 10 9 10
2 3 6 3 8 10 8 9 8 3 4 6 12 7 8 10 4 11 12 5 9 20 22 24 23 22 22 19 18 17 17 17 20 20 20 20 20 20 19 19 18 16 15 15 12 10 10 10 10
5 5 6 5 8 16 7 1 3 3 2 7 6 3 7 4 9 11 11 3 11 19 22 22 22 22 23 20 19 17 17 18 18 21 20 19 19 19 19 19 17 15 14 14 12 11 10 11 11
6 6 5 10 16 7 4 1 2 8 10 1 5 14 5 2 12 16 16 4 13 17 19 22 21 22 23 21 19 19 17 18 19 20 20 19 18 18 17 18 17 15 14 14 12 11 11 11 11
5 5 13 13 16 12 12 14 12 13 11 9 8 8 9 5 13 16 9 3 12 16 17 20 20 22 23 21 20 20 19 18 19 19 19 19 18 17 17 17 17 15 14 12 12 10 12 12 12
8 5 12 19 16 9 14 14 12 12 10 12 10 9 5 1 22 18 9 4 9 13 14 18 18 20 21 21 20 20 20 19 18 18 19 19 18 17 17 17 16 15 14 12 12 12 12 12 13
11 11 18 17 15 13 14 10 13 15 14 10 7 10 6 11 21 16 10 4 6 11 13 17 20 19 19 21 21 22 20 19 18 18 19 18 19 19 17 16 15 15 14 14 12 13 13 12 12
6 7 15 14 15 16 7 12 12 14 11 6 2 1 5 15 18 15 10 5 7 11 14 16 19 19 18 17 18 20 20 19 18 18 18 18 18 18 17 15 14 14 15 13 14 13 14 13 12
3 9 15 18 14 14 2 11 10 7 15 8 10 17 14 12 19 16 13 6 8 12 14 15 18 18 17 17 16 16 17 18 17 17 16 17 17 18 17 18 18 16 14 14 13 13 13 13 10
8 13 11 8 9 11 9 11 16 17 17 17 17 4 11 20 20 22 21 14 10 14 16 17 18 18 17 16 16 18 17 17 18 18 18 17 17 18 17 17 17 14 14 12 13 13 12 13 13
3 12 9 10 5 7 11 15 17 22 27 21 24 26 26 30 31 25 24 21 15 13 15 17 18 19 20 19 16 16 17 17 18 19 19 19 16 16 16 14 14 15 13 13 12 12 13 13 8
9 8 11 11 10 15 19 22 24 26 33 28 28 30 31 27 27 27 23 23 19 12 17 19 20 20 20 18 18 18 17 15 15 18 20 18 16 15 17 15 17 16 16 15 15 13 13 11 11
13 10 7 9 16 17 19 25 29 30 28 29 24 24 25 24 23 26 25 24 21 20 17 21 22 21 20 21 18 19 19 18 17 16 16 16 18 17 17 16 16 16 15 15 15 14 12 14 12
5 11 17 17 18 22 21 21 13 10 20 18 20 24 25 26 25 24 25 25 22 21 18 21 25 23 22 22 21 18 18 17 17 17 19 19 19 17 18 17 15 16 15 16 16 15 13 14 12
9 19 18 12 2 9 15 23 18 12 9 18 23 29 33 33 31 28 26 26 23 23 21 20 24 27 27 25 22 20 19 18 19 18 18 20 21 18 16 16 17 15 16 16 15 14 14 13 12
11 11 5 6 10 7 7 26 15 12 12 29 33 30 31 32 32 30 29 26 25 24 25 23 23 28 30 26 24 21 19 19 18 18 18 18 21 20 17 16 16 17 11 13 13 14 13 15 14
7 11 14 12 5 15 5 31 15 27 31 30 30 31 30 31 31 30 28 28 28 26 25 25 24 28 30 28 24 21 19 17 18 18 18 20 20 22 19 17 17 15 13 13 14 13 15 14 14
16 22 20 20 8 18 26 37 27 26 26 28 29 28 30 30 29 29 30 28 25 25 26 26 24 27 30 26 24 22 20 19 19 18 17 18 19 21 18 17 17 15 15 14 15 15 13 15 15
16 19 25 21 15 19 21 31 35 30 24 23 22 23 26 29 30 27 27 20 17 22 18 22 26 26 27 28 28 25 25 24 22 21 21 21 19 20 20 19 17 18 18 18 18 14 17 14 12
13 18 25 21 6 18 25 31 32 20 20 21 19 21 22 25 24 24 21 18 16 17 15 18 24 28 28 28 27 27 25 23 22 19 21 23 23 22 21 21 18 19 18 18 18 18 10 12 13
15 18 21 26 22 21 13 24 15 17 13 19 22 24 23 22 23 22 21 17 15 15 15 16 18 19 25 25 24 24 21 19 19 20 22 23 24 24 24 25 23 21 21 19 19 20 18 13 12
15 8 12 15 18 18 16 22 25 11 15 23 22 24 24 24 22 20 19 17 15 16 15 15 13 14 11 19 22 27 26 23 20 19 19 19 22 25 26 26 25 23 18 20 19 18 18 15 14
6 6 11 12 17 20 12 13 9 20 22 28 26 24 24 24 22 21 18 16 16 17 16 14 14 8 6 5 1 17 21 19 16 15 14 15 17 23 24 25 24 22 19 19 18 19 19 20 18
9 10 13 12 10 8 4 7 8 16 22 24 26 24 24 26 24 21 19 16 17 17 17 14 13 12 12 10 14 18 12 14 12 9 11 11 12 14 20 21 20 21 20 22 22 23 23 21 20
3 7 4 4 6 8 6 15 7 17 19 20 26 26 25 25 28 23 23 20 19 19 18 16 15 17 16 16 16 16 9 8 7 5 4 8 12 13 17 17 18 21 23 22 22 27 29 28 24
4 7 6 6 8 16 7 3 4 11 16 20 22 23 26 27 27 28 22 21 20 20 20 18 19 18 20 18 17 16 15 10 8 10 6 6 6 10 10 14 18 21 23 24 24 21 23 24 26
2 7 2 10 12 8 3 5 3 17 19 20 24 26 26 27 26 27 25 22 21 20 20 20 20 20 22 23 18 19 18 16 13 11 8 7 9 10 12 13 17 18 19 22 20 20 23 20 24
14 8 5 6 5 7 2 3 8 18 20 20 23 25 26 25 26 26 27 25 24 21 19 21 24 25 27 22 22 19 20 19 17 14 13 16 15 15 16 15 15 18 18 18 19 20 20 22 23
6 12 10 6 7 5 7 5 7 11 14 17 18 20 23 24 25 25 27 27 23 24 24 25 25 24 23 23 25 21 22 21 18 20 21 21 19 19 21 18 16 16 19 20 21 20 19 24 24
9 13 15 8 4 7 3 3 8 10 12 14 17 19 20 20 23 24 26 25 27 29 29 29 27 27 26 24 22 25 26 26 25 26 24 23 23 19 18 20 16 17 16 17 18 22 21 23 22
Wind_Direction
234 239 247 241 239 242 229 230 254 252 255 176 184 294 302 294 271 294 66 301 184 174 165 165 157 156 151 150 150 148 147 151 154 155 154 152 149 147 146 145 147 148 149 154 156 150 142 135 141
213 208 217 236 251 238 244 227 235 267 323 305 288 266 239 288 281 301 319 2 200 172 167 170 158 155 151 154 154 152 149 153 153 154 153 150 148 148 146 148 151 151 149 151 154 148 138 131 129
211 227 242 238 240 247 287 108 243 96 348 290 288 266 304 293 340 315 354 277 191 171 171 164 158 155 155 159 157 155 152 155 154 152 151 149 150 151 150 152 152 150 151 150 150 145 138 130 131
193 189 211 237 237 236 276 172 253 297 310 254 309 289 301 292 342 341 327 213 183 173 171 148 159 158 154 161 162 158 156 158 153 148 149 151 153 155 155 155 155 155 153 150 149 145 143 140 142
214 245 244 245 250 259 256 266 285 287 295 288 300 295 289 44 8 0 345 202 185 173 175 164 166 159 154 162 165 162 161 160 156 153 152 153 156 159 160 161 162 161 157 155 145 153 150 151 148
216 275 244 253 249 240 270 273 285 284 284 288 284 280 264 85 3 356 345 232 196 184 181 173 170 160 157 162 166 167 167 168 164 160 157 157 158 163 165 167 169 164 163 162 159 162 158 157 152
258 247 264 281 278 260 267 293 292 301 299 307 302 272 282 6 357 354 344 282 206 192 190 178 182 173 164 167 170 172 173 171 171 168 165 162 163 166 169 173 174 169 165 164 169 163 162 160 158
254 258 265 256 267 273 299 297 289 298 301 317 268 312 312 345 349 354 357 309 230 202 198 189 186 183 182 185 179 175 175 175 176 176 171 168 168 170 170 174 180 174 170 170 165 169 162 164 164
238 249 254 260 267 280 357 297 303 302 276 275 295 291 318 325 335 336 345 321 251 222 210 198 191 188 188 190 189 183 179 178 179 180 175 171 182 181 175 188 173 180 176 171 170 169 166 165 161
237 249 279 328 302 301 303 290 302 298 290 287 294 258 302 316 319 317 315 316 286 236 214 205 198 191 193 197 191 198 192 193 194 191 185 191 193 190 187 181 178 183 177 179 171 171 167 179 179
224 257 324 267 319 306 296 288 301 293 280 286 304 296 298 307 305 300 297 297 290 256 223 218 207 199 195 192 192 204 196 198 200 197 191 199 197 191 196 185 190 190 183 187 185 175 193 200 200
263 255 271 294 300 303 289 295 281 279 284 290 290 291 289 288 289 291 291 291 286 259 237 217 216 207 204 200 194 195 196 197 201 203 196 198 200 193 199 198 193 197 187 197 194 195 204 207 205
255 279 294 287 286 284 289 277 279 275 277 284 284 292 290 290 286 284 285 285 282 278 236 224 211 211 206 207 200 199 203 198 197 191 196 197 202 196 198 204 198 194 193 198 201 205 201 206 205
353 291 290 287 283 283 283 283 285 284 290 292 296 299 301 301 297 294 289 283 277 271 253 220 215 205 210 209 207 199 196 200 207 202 196 199 206 200 204 204 195 206 199 202 202 205 207 209 210
287 290 293 290 27 308 304 278 260 280 253 299 300 303 298 293 291 288 285 287 279 269 257 235 217 203 204 206 207 200 199 203 202 208 208 198 205 197 196 205 203 200 205 205 207 203 209 213 214
285 274 286 150 304 309 304 290 319 333 302 300 296 290 289 287 284 280 283 280 281 273 264 250 212 213 206 201 206 203 201 201 203 208 205 212 206 203 195 199 206 205 188 200 198 191 199 214 216
191 291 311 308 257 306 284 296 307 295 297 294 295 294 287 287 286 285 274 271 274 273 264 250 221 215 211 203 202 204 202 200 206 208 206 206 213 211 200 201 203 206 181 194 194 198 203 215 221
309 303 298 296 315 287 295 290 301 299 293 291 292 290 290 288 289 289 286 272 280 292 281 261 236 214 211 206 198 198 201 201 205 206 206 207 211 214 207 204 202 191 199 192 198 200 206 213 216
288 287 289 292 303 299 293 295 302 307 309 299 297 298 305 310 312 293 290 292 300 296 301 265 240 215 209 204 196 200 204 207 206 208 207 204 205 212 207 211 199 192 203 199 194 190 200 208 213
271 280 284 293 266 302 299 300 296 307 347 17 352 330 325 324 323 316 317 320 318 313 308 291 259 223 210 206 201 201 206 207 210 206 208 211 204 205 210 213 209 202 205 205 198 193 187 206 195
271 276 288 293 311 287 292 301 319 329 30 15 352 338 335 331 324 318 314 311 326 323 323 308 283 254 212 212 203 196 205 208 208 209 215 213 212 208 207 214 218 212 212 204 197 195 189 191 197
286 299 290 297 315 312 323 298 307 346 339 355 347 344 341 335 332 327 326 322 336 335 330 320 295 259 259 226 207 194 188 198 207 212 214 213 214 214 214 218 218 218 209 208 202 199 201 198 195
290 292 292 294 294 303 300 284 313 7 348 342 346 347 345 343 335 335 334 335 346 348 345 344 337 339 303 225 227 201 193 205 201 209 218 211 212 221 224 218 219 215 201 205 191 191 203 210 214
278 299 279 272 280 269 316 291 45 10 342 344 348 348 351 354 344 339 339 349 359 358 353 358 7 10 20 35 51 80 283 219 212 210 199 205 205 211 226 227 215 208 200 196 191 194 200 211 222
226 290 304 254 213 280 323 306 40 3 4 355 353 351 358 3 358 343 349 360 5 6 1 4 14 21 29 50 51 61 73 62 67 70 35 227 202 214 221 225 215 211 207 203 198 205 203 199 213
278 289 290 288 310 312 327 300 37 19 11 0 2 356 359 4 2 352 350 356 7 12 8 13 27 21 23 36 49 53 50 44 45 21 6 312 316 237 218 228 223 219 211 212 217 222 222 202 208
120 244 302 274 264 274 109 97 249 17 7 2 5 2 0 1 359 354 352 2 7 12 13 19 31 30 30 24 33 41 39 33 26 14 356 328 323 311 271 226 226 230 226 218 217 218 217 215 213
235 290 233 215 282 297 78 110 354 0 358 358 4 360 356 0 0 357 1 359 7 11 17 26 33 35 34 19 28 38 37 33 25 24 5 2 349 330 289 249 232 232 229 220 211 214 222 216 221
231 228 230 262 263 281 297 95 16 18 6 4 4 360 356 358 359 1 2 4 8 9 19 26 30 37 37 29 37 34 41 33 28 28 19 12 346 348 314 251 241 235 224 220 217 217 217 222 222
260 246 232 245 221 251 287 101 29 35 17 16 7 3 357 1 -0 3 5 4 9 15 18 23 19 25 30 33 35 32 38 30 26 27 18 12 7 356 349 357 254 238 245 234 219 220 222 222 223